This is the latest recevied weather packets stored in our database for station/object KHOP. If no packets are shown the sender has not sent any weather packets the latest 1 day(s).
| Time | Temp. | Humidity | Pressure | Rain* | Wind** | Luminosity | Snow |
|---|---|---|---|---|---|---|---|
| 1778100811 | 13.89° C | 71% | 1013.5 hPa | - | - | - | - |
| 1778097812 | 13.89° C | 71% | 1013.9 hPa | - | - | - | - |
| 1778096011 | 13.89° C | 76% | 1013.2 hPa | - | - | - | - |
| 1778095411 | 13.89° C | 71% | 1013.5 hPa | - | - | - | - |
| 1778093014 | 15° C | 72% | 1013.5 hPa | - | - | - | - |
| 1778091815 | 15° C | 72% | 1013.5 hPa | - | - | - | - |
| 1778091214 | 15° C | 72% | 1013.5 hPa | - | - | - | - |
| 1778088215 | 15° C | 77% | 1013.2 hPa | - | - | - | - |
| 1778085813 | 10.56° C | 87% | 1014.2 hPa | - | - | - | - |
| 1778083537 | 10.56° C | 87% | 1012.9 hPa | - | - | - | - |
| 1778079212 | 10° C | 93% | 1012.9 hPa | - | - | - | - |
| 1778076211 | 10° C | 93% | 1012.5 hPa | - | - | - | - |
| 1778074408 | 10.56° C | 87% | 1011.5 hPa | - | - | - | - |
| 1778073213 | 10.56° C | 87% | 1011.5 hPa | - | - | - | - |
| 1778072614 | 10.56° C | 87% | 1011.5 hPa | - | - | - | - |
| 1778070213 | 10.56° C | 87% | 1011.2 hPa | - | - | - | - |
| 1778067210 | 10° C | 93% | 1010.5 hPa | - | - | - | - |
| 1778066615 | 10° C | 93% | 1010.5 hPa | - | - | - | - |
| 1778066014 | 10° C | 93% | 1010.5 hPa | - | - | - | - |
| 1778065411 | 10° C | 93% | 1010.8 hPa | - | - | - | - |
| 1778064214 | 10° C | 93% | 1010.2 hPa | - | - | - | - |
| 1778062412 | 10.56° C | 87% | 1009.5 hPa | - | - | - | - |
| 1778061813 | 10.56° C | 87% | 1009.5 hPa | - | - | - | - |
| 1778060013 | 10.56° C | 87% | 1009.5 hPa | - | - | - | - |
| 1778058812 | 10.56° C | 87% | 1009.5 hPa | - | - | - | - |
* Rain since midnight (hover to see other rain measurements)
** Current wind speed in m/s (hover to see current wind gust speed)